TimeMDT,TemperatureF,Dew PointF,Humidity,Sea Level PressureIn,VisibilityMPH,Wind Direction,Wind SpeedMPH,Gust SpeedMPH,PrecipitationIn,Events,Conditions,WindDirDegrees,DateUTC
12:53 AM,33.1,26.1,75,30.13,10.0,NNW,4.6,-,N/A,,Clear,330,2011-10-16 06:53:00
1:53 AM,32.0,25.0,75,30.14,10.0,West,4.6,-,N/A,,Clear,280,2011-10-16 07:53:00
2:53 AM,30.2,24.8,80,30.11,10.0,West,4.6,-,N/A,,Clear,270,2011-10-16 08:53:00
3:53 AM,30.9,25.0,79,30.16,10.0,WNW,3.5,-,N/A,,Clear,300,2011-10-16 09:53:00
4:53 AM,28.4,24.8,86,30.12,10.0,NNW,8.1,-,N/A,,Clear,340,2011-10-16 10:53:00
5:53 AM,28.0,24.1,85,30.18,10.0,NNW,5.8,-,N/A,,Clear,340,2011-10-16 11:53:00
6:53 AM,28.9,24.1,82,30.18,10.0,NW,4.6,-,N/A,,Clear,320,2011-10-16 12:53:00
7:53 AM,25.0,21.9,88,30.19,10.0,Calm,Calm,-,N/A,,Clear,0,2011-10-16 13:53:00
8:53 AM,30.9,26.1,82,30.20,10.0,Calm,Calm,-,N/A,,Clear,0,2011-10-16 14:53:00
9:53 AM,36.0,27.0,70,30.19,10.0,Calm,Calm,-,N/A,,Clear,0,2011-10-16 15:53:00
10:53 AM,39.9,27.0,60,30.18,10.0,Calm,Calm,-,N/A,,Clear,0,2011-10-16 16:53:00
11:53 AM,45.0,26.1,48,30.16,10.0,Calm,Calm,-,N/A,,Clear,0,2011-10-16 17:53:00
12:53 PM,48.2,26.6,43,30.08,10.0,Calm,Calm,-,N/A,,Clear,0,2011-10-16 18:53:00
1:53 PM,50.0,19.9,31,30.11,10.0,Calm,Calm,-,N/A,,Clear,0,2011-10-16 19:53:00
2:53 PM,52.0,18.0,26,30.09,10.0,Calm,Calm,-,N/A,,Clear,0,2011-10-16 20:53:00
3:53 PM,52.0,17.1,25,30.08,10.0,Calm,Calm,-,N/A,,Clear,0,2011-10-16 21:53:00
4:53 PM,51.1,17.1,26,30.07,10.0,Calm,Calm,-,N/A,,Clear,0,2011-10-16 22:53:00
5:53 PM,50.0,17.6,28,30.02,10.0,Calm,Calm,-,N/A,,Clear,0,2011-10-16 23:53:00
6:53 PM,48.9,17.1,28,30.08,10.0,Calm,Calm,-,N/A,,Clear,0,2011-10-17 00:53:00
7:53 PM,46.0,21.0,37,30.09,10.0,Calm,Calm,-,N/A,,Clear,0,2011-10-17 01:53:00
8:53 PM,46.0,21.9,39,30.09,10.0,Calm,Calm,-,N/A,,Clear,0,2011-10-17 02:53:00
9:53 PM,41.0,24.1,51,30.09,10.0,Calm,Calm,-,N/A,,Clear,0,2011-10-17 03:53:00
10:53 PM,39.9,19.9,45,30.09,10.0,Calm,Calm,-,N/A,,Clear,0,2011-10-17 04:53:00
11:53 PM,34.0,23.0,64,30.10,10.0,NNW,4.6,-,N/A,,Clear,340,2011-10-17 05:53:00